Wind_Speed
21 24 25 24 22 21 19 18 16 14 13 13 14 15 16 17 18 18 19 20 20 19 18 17 16 16 16 15 15 14 14 15 15 15 14 14 14 13 13 13 12 12 11 11 10 10 10 9 10 10 10 11 11 11 11 11 11 12 12 12 12 12 11 11 12 12 12 14 16 16 17 16 17 17 16 15 15 16 17 18 18 18 17 16 16
20 22 25 26 24 23 21 19 17 15 14 14 15 16 17 18 18 18 19 20 20 18 16 16 15 15 15 15 14 14 14 14 15 15 14 14 14 13 13 12 12 12 11 11 10 10 9 9 9 9 10 10 10 11 11 11 11 11 11 11 11 12 11 11 12 12 12 13 15 15 15 16 16 17 17 17 17 17 18 18 19 18 18 17 17
22 22 24 26 26 25 24 21 19 17 15 14 14 16 17 17 17 17 18 19 19 17 16 15 15 15 15 15 14 13 13 14 14 15 14 14 14 14 13 13 12 12 11 11 10 10 10 9 9 9 10 10 10 11 11 11 11 11 11 11 11 12 12 12 13 13 13 14 15 16 16 17 17 17 18 18 19 19 19 18 19 19 19 20 19
24 23 23 26 28 28 26 24 21 19 17 15 15 15 16 16 16 17 18 18 18 16 15 15 15 15 15 15 14 13 13 13 13 14 14 14 14 13 13 12 12 12 11 11 10 10 10 9 10 10 10 10 10 10 11 11 11 11 11 11 11 12 12 13 14 14 14 15 16 17 17 18 19 19 19 19 18 19 18 18 18 19 19 20 21
26 25 24 25 28 30 28 27 24 21 19 17 16 15 16 16 16 17 18 18 17 16 14 14 15 15 16 16 15 14 13 13 13 13 13 13 13 13 12 12 11 11 11 10 10 10 9 9 9 9 9 10 10 10 10 10 10 11 11 11 11 12 13 13 14 14 15 16 17 17 18 18 18 19 21 21 20 19 18 17 17 17 17 17 18
27 26 25 25 28 30 31 29 26 23 20 19 17 17 16 16 16 17 17 18 17 16 14 14 15 15 16 16 16 15 13 13 13 13 13 13 13 13 12 12 11 11 10 10 9 9 9 9 9 9 9 9 9 10 10 10 11 11 11 11 11 12 13 13 14 14 15 16 17 18 19 19 19 20 21 23 24 23 21 18 16 15 16 15 15
27 26 26 26 27 30 32 31 28 25 23 21 19 18 17 17 16 16 16 17 17 16 15 14 15 16 16 17 17 16 14 13 13 13 14 14 13 13 12 12 12 11 11 10 9 9 9 9 9 9 9 9 10 10 10 11 11 11 11 12 12 12 13 13 14 15 15 16 17 18 19 20 21 21 21 22 22 23 24 23 20 18 18 19 18
26 26 26 26 26 28 31 32 30 27 26 24 21 18 18 17 16 16 16 17 17 17 16 14 15 16 17 17 17 16 15 14 14 13 14 14 14 13 13 12 12 11 11 10 10 9 9 9 9 9 9 10 10 10 11 11 11 12 12 12 13 13 13 14 14 15 16 16 17 18 18 19 20 20 20 21 21 22 24 26 25 24 23 22 23
26 26 26 25 25 26 29 33 32 30 28 25 21 19 18 17 17 16 16 17 16 17 17 15 15 16 17 17 17 17 16 15 14 14 14 14 14 14 13 13 12 12 11 11 10 9 9 9 9 9 9 10 10 10 11 11 11 12 12 12 13 13 14 14 15 15 16 17 17 18 18 19 21 21 22 23 24 24 25 26 27 27 26 24 23
27 27 26 25 24 24 28 32 33 32 29 25 22 21 19 18 17 16 16 17 17 17 17 17 16 16 17 17 17 17 17 16 15 14 14 14 14 14 13 13 12 12 11 11 10 10 9 9 9 10 10 10 10 11 11 11 11 12 12 12 12 13 13 14 15 16 16 18 19 19 20 20 22 23 23 24 24 24 25 26 27 27 28 27 24
27 27 26 24 23 24 26 30 32 32 29 27 24 22 20 19 17 17 17 17 17 17 17 17 17 17 17 18 18 17 17 16 15 14 13 14 14 14 14 13 13 12 11 11 10 10 10 10 9 10 10 10 10 11 11 12 12 12 13 13 13 14 14 14 15 16 17 17 19 20 21 21 21 23 24 23 24 24 25 26 27 28 29 30 29
27 27 26 24 23 23 24 27 31 32 30 28 26 23 21 20 18 17 17 17 17 17 17 17 18 17 17 18 18 18 18 17 16 15 14 13 13 14 14 13 13 12 12 11 11 10 10 10 10 10 10 10 11 11 11 12 12 13 13 13 14 15 15 15 16 16 17 17 18 19 21 21 21 22 24 24 24 25 25 25 27 28 28 29 31
26 26 26 25 23 22 23 25 29 31 30 29 27 25 23 21 19 18 18 17 17 17 17 18 18 17 17 18 18 19 18 17 16 16 15 14 13 13 13 13 12 13 12 11 11 10 10 10 10 10 10 10 11 11 12 12 13 13 13 14 14 15 15 16 16 16 17 17 18 19 20 21 21 21 23 25 26 26 26 27 27 28 29 29 30
26 26 25 25 23 22 22 23 27 30 30 29 28 27 24 22 20 19 18 17 17 17 17 17 18 18 17 18 18 19 19 18 17 15 15 15 14 12 12 12 12 12 12 12 11 11 10 10 10 10 10 11 11 11 12 12 13 13 14 14 14 15 15 16 16 16 17 18 18 18 19 20 22 22 22 24 26 26 27 28 29 30 30 29 30
27 26 25 25 23 21 21 22 25 29 30 29 29 27 25 23 20 19 19 18 17 17 17 18 18 18 18 18 18 19 19 18 17 16 15 15 15 13 11 11 11 11 12 12 11 11 11 10 10 11 11 11 11 12 12 12 13 13 14 14 15 15 15 15 16 16 17 17 18 18 18 19 21 22 23 24 25 26 27 28 30 31 32 31 30
27 26 25 24 23 22 21 21 23 27 29 29 28 27 25 24 22 21 20 19 18 18 18 18 18 18 18 18 18 19 20 19 18 16 15 15 16 15 13 12 11 11 11 12 12 12 12 11 11 11 11 11 11 12 13 13 13 13 13 14 14 15 15 15 15 16 17 18 18 19 19 20 21 22 23 24 26 26 26 27 28 30 32 32 31
27 27 25 24 23 22 21 21 23 26 28 28 27 26 25 25 23 22 21 20 19 19 19 19 19 18 18 19 19 19 19 19 18 17 16 17 17 17 15 14 12 11 11 12 12 12 12 12 11 11 11 12 12 12 13 13 13 13 13 13 14 14 15 15 15 16 17 18 19 19 20 20 20 21 21 23 25 25 26 26 27 28 31 33 34
27 26 26 24 23 21 21 21 22 24 26 26 26 25 25 26 25 23 22 21 20 21 21 21 20 19 19 19 19 18 19 19 18 17 17 18 19 18 17 16 15 13 12 12 12 13 13 13 12 12 12 12 12 13 14 14 14 13 13 13 13 14 14 14 15 16 16 17 17 18 20 20 20 20 21 22 23 24 26 27 27 28 30 31 34
26 25 25 24 24 22 21 21 21 22 23 24 25 25 25 25 25 24 23 22 22 22 23 22 21 20 20 20 19 18 18 19 19 18 17 19 20 20 19 18 17 15 13 12 12 13 13 14 13 13 12 12 13 13 14 15 15 14 13 13 14 14 14 15 15 15 15 15 16 17 18 19 20 20 20 21 22 23 24 25 26 28 29 30 32
25 25 24 24 23 23 21 20 20 20 22 23 23 24 24 25 25 24 23 23 23 24 24 24 23 22 21 21 20 19 19 19 20 19 18 19 21 22 21 20 19 17 14 13 12 13 13 14 14 13 13 13 13 13 14 15 15 14 14 14 14 14 14 14 15 16 16 16 16 17 17 18 19 19 20 20 21 22 23 24 25 27 28 30 30
24 24 24 23 23 22 21 20 20 20 21 22 22 23 24 24 24 24 23 24 24 25 25 25 25 24 23 22 21 20 20 20 21 20 19 19 21 23 23 21 19 18 17 14 13 12 13 14 14 14 13 13 14 14 15 16 15 14 14 14 14 14 14 15 15 16 16 16 16 17 17 18 18 19 20 19 20 21 22 23 25 26 27 28 29
23 23 23 23 22 21 21 20 20 20 21 22 22 23 23 24 24 24 24 25 25 26 26 26 26 26 25 24 23 22 21 21 21 20 20 20 21 23 24 22 20 19 18 16 14 13 14 14 14 14 14 14 13 14 15 16 15 14 14 15 15 14 15 15 16 16 16 17 17 17 17 18 18 18 19 19 19 20 21 22 23 25 26 27 28
23 23 22 22 22 22 22 21 21 22 22 22 23 23 24 24 24 25 25 26 26 27 26 26 27 27 27 25 24 24 23 21 20 20 20 20 20 22 24 22 20 20 19 18 16 16 16 15 15 15 14 14 13 14 15 16 15 14 14 15 15 15 16 16 16 17 17 17 18 18 18 19 19 19 19 19 19 20 21 22 22 24 25 26 26
23 23 22 22 22 22 22 22 22 23 23 23 24 24 24 25 25 25 26 26 26 27 26 26 26 27 27 25 24 23 23 22 20 19 20 20 19 21 22 22 20 20 20 20 19 18 18 17 16 16 15 14 14 14 15 16 15 14 14 14 14 15 16 16 17 17 18 18 19 19 19 19 20 19 19 19 20 21 22 22 22 23 25 26 26
22 22 22 22 22 22 22 22 22 23 23 24 24 24 25 26 25 26 25 25 26 26 25 25 25 25 26 25 23 22 22 21 19 17 18 18 18 19 21 21 21 21 21 21 20 19 19 19 17 16 15 14 14 14 14 15 15 14 14 14 14 15 16 16 17 18 18 19 20 20 19 19 19 19 19 20 20 22 23 23 22 22 24 26 26
21 22 22 22 22 22 23 23 23 23 23 24 24 24 25 25 25 25 25 24 25 25 25 25 25 24 25 24 23 21 20 20 19 16 15 16 16 16 18 20 21 21 21 20 19 18 19 19 18 16 15 14 14 14 14 14 14 14 14 14 14 15 15 16 17 18 19 20 20 20 19 19 18 18 19 19 20 21 23 24 24 23 25 27 27
21 21 21 21 21 22 22 22 22 22 22 22 22 22 23 23 24 23 23 23 24 24 24 24 24 24 24 24 23 22 20 20 19 17 15 14 14 14 15 16 17 18 17 17 17 17 18 19 18 16 15 14 13 13 13 13 14 14 14 14 14 14 15 16 17 18 19 20 20 19 19 18 18 18 18 19 19 20 22 25 26 26 27 28 29
21 21 21 21 21 21 21 21 22 21 21 21 20 20 20 21 21 21 21 21 22 23 23 23 22 23 23 23 23 22 21 20 19 18 16 15 14 14 14 14 14 15 14 14 15 16 16 17 17 16 15 14 13 13 13 13 13 13 13 13 13 13 14 15 15 16 18 18 19 19 19 18 18 18 18 18 18 19 22 24 25 27 28 29 31
20 20 20 21 21 21 20 20 20 20 20 20 19 19 18 19 19 19 18 18 20 21 22 22 21 21 22 22 22 22 21 20 20 20 18 16 15 15 15 16 16 15 14 15 15 15 15 16 15 15 14 13 13 13 13 13 13 13 13 13 12 12 13 14 14 15 16 17 18 18 18 18 18 17 18 18 18 19 21 23 25 26 28 29 31
19 19 19 19 19 19 18 18 18 18 19 19 18 18 16 16 17 18 17 16 17 18 19 19 20 20 20 20 19 20 21 20 19 20 19 18 17 17 17 18 18 17 16 17 17 17 16 16 15 14 14 14 14 14 14 14 13 13 12 12 12 12 12 13 14 15 16 17 18 18 18 18 18 18 18 19 19 19 21 22 24 26 28 30 32
18 18 18 17 18 18 17 17 17 17 17 18 18 18 16 14 14 16 17 17 16 16 17 17 18 19 20 20 19 19 19 19 19 19 19 19 19 19 19 20 20 19 19 20 20 19 19 18 18 16 16 16 15 14 14 14 14 14 13 12 11 12 12 13 14 15 16 17 17 17 17 18 18 18 19 20 21 21 21 22 24 26 28 30 32
18 17 17 17 17 17 17 17 17 17 17 17 18 18 18 17 14 13 15 16 16 16 16 16 17 18 19 20 20 19 18 18 18 18 18 19 19 20 20 21 21 21 21 22 23 22 21 21 20 19 17 16 15 14 14 14 14 14 14 13 12 11 12 14 15 16 16 17 17 17 17 17 18 18 19 20 21 21 22 23 25 27 28 30 32
18 17 17 17 17 17 17 16 16 17 17 17 17 17 18 19 17 15 13 14 15 15 15 16 17 18 18 18 19 19 18 17 17 18 18 18 18 19 19 19 19 19 20 22 24 24 23 22 21 18 16 15 15 14 15 14 14 15 15 14 13 12 13 15 15 15 16 16 16 16 17 17 17 18 18 19 20 21 23 24 26 27 29 31 32
18 18 18 17 17 17 17 17 17 17 17 17 18 17 18 19 19 19 17 15 14 14 14 14 15 16 17 17 17 18 17 17 17 17 17 17 17 17 17 18 18 17 17 19 21 22 22 22 20 17 15 15 15 15 15 15 15 15 15 15 14 14 14 15 15 15 15 16 16 16 16 16 17 18 18 19 19 21 23 24 26 28 30 32 34
17 17 18 17 17 17 17 17 17 17 17 17 18 18 18 18 19 20 20 19 18 17 16 15 15 16 17 17 17 18 18 18 17 16 16 16 16 16 16 16 17 16 16 17 18 19 20 19 18 16 15 14 14 15 15 15 15 15 15 15 15 14 14 14 14 14 15 15 16 15 15 15 16 17 19 19 20 22 23 24 26 29 31 32 34
17 17 17 17 17 17 17 17 17 17 17 18 17 17 18 18 18 18 19 19 19 18 18 17 16 16 16 17 18 18 18 18 18 17 15 15 15 15 15 15 16 16 17 17 17 18 18 17 16 15 14 14 13 13 12 12 13 13 13 14 13 12 12 13 13 14 15 15 15 15 14 14 15 17 18 19 19 21 23 25 27 28 30 32 34
16 16 16 16 16 16 16 16 16 17 17 17 17 17 17 17 18 18 18 18 19 19 19 18 18 17 16 15 17 18 18 17 17 17 16 16 16 15 16 16 17 18 18 18 18 19 18 17 16 14 14 13 12 11 11 10 10 10 10 11 11 11 12 12 13 14 14 14 14 14 13 14 15 16 18 19 19 21 23 25 27 28 29 30 32
16 16 16 16 16 16 16 16 16 16 16 16 17 17 17 17 18 18 18 19 19 19 19 20 19 19 18 17 17 18 18 17 17 17 17 17 17 17 17 17 17 17 17 18 18 19 18 17 16 14 13 13 12 11 10 9 9 9 9 10 10 11 12 12 13 14 14 13 13 12 12 13 14 16 17 19 20 21 23 25 27 29 29 29 31
15 16 16 16 16 16 16 16 16 16 16 16 17 17 17 17 18 18 18 19 19 19 20 20 19 19 19 19 19 19 18 18 17 16 16 16 17 17 18 17 17 16 16 16 16 16 16 16 14 13 13 12 11 10 9 9 8 9 9 10 11 11 12 12 13 13 13 13 12 12 12 13 14 15 17 18 20 22 23 25 26 28 30 31 32
15 16 16 16 16 16 16 16 16 16 17 17 17 17 18 18 18 18 19 19 19 19 19 20 19 19 19 19 19 19 19 18 18 17 16 16 16 16 17 17 16 16 16 15 15 14 14 13 11 11 11 11 10 9 8 7 8 9 10 11 12 12 12 12 13 12 12 12 11 11 12 13 14 15 16 17 19 21 24 25 26 27 28 31 33
15 16 16 16 16 16 16 16 16 16 17 17 17 18 18 18 19 19 19 19 19 19 19 19 19 18 18 18 18 18 18 18 18 17 17 16 15 16 16 15 15 15 16 16 15 14 13 12 11 10 9 9 9 8 7 8 9 11 12 12 13 12 12 12 12 12 12 11 10 11 12 13 14 15 15 17 19 21 23 25 26 26 28 30 33
16 16 16 16 17 17 16 16 17 17 17 17 17 18 18 18 19 19 19 19 19 19 19 18 18 17 17 17 17 17 17 17 17 17 16 15 15 15 15 15 14 14 15 16 16 15 14 13 12 11 10 10 10 9 9 11 12 13 13 13 13 13 12 11 11 12 11 10 9 11 12 13 14 14 15 17 19 21 23 24 24 26 28 30 33
17 17 17 17 17 18 17 17 17 17 17 18 18 18 18 18 18 19 19 19 19 19 19 18 17 16 16 15 15 15 15 15 15 15 15 15 14 14 14 14 14 14 15 16 16 16 15 14 13 12 12 12 12 12 13 14 14 14 14 14 13 12 10 10 11 11 10 9 9 11 12 13 13 14 16 18 20 21 22 23 24 26 29 31 33
18 18 18 18 18 18 18 18 18 18 18 18 18 18 18 18 18 18 18 19 19 19 18 18 17 16 15 14 14 14 14 14 14 14 14 14 13 13 13 13 13 14 15 16 17 17 18 17 16 15 15 15 16 16 17 16 16 15 15 14 13 11 10 10 10 9 9 9 10 11 11 12 13 14 16 18 20 22 22 23 25 27 30 32 34
19 19 19 19 18 18 18 18 18 18 18 18 18 18 18 18 18 18 18 18 18 18 17 16 16 15 15 14 14 14 14 14 14 13 13 13 12 12 12 12 12 13 14 15 16 18 19 20 20 20 19 20 20 19 18 17 16 15 14 13 11 10 9 9 9 8 8 9 10 10 11 11 12 14 16 18 20 21 22 24 26 29 31 33 34
19 19 19 19 18 18 18 18 18 18 18 18 18 18 18 18 18 17 17 17 17 17 16 15 15 14 14 14 14 14 13 13 13 13 12 12 11 11 11 11 11 11 12 13 14 16 17 19 20 20 19 19 18 17 16 15 14 13 12 11 10 9 8 8 7 7 9 10 10 10 11 12 13 15 17 19 20 21 23 24 27 30 32 34 35
18 18 18 18 18 18 18 18 18 18 18 18 18 18 18 18 18 17 17 16 16 16 15 14 14 14 14 14 14 14 13 13 13 13 12 12 11 11 11 11 10 10 10 11 12 13 14 15 15 14 14 13 13 12 12 11 11 11 10 10 9 8 7 7 7 8 9 10 10 11 12 13 14 16 18 19 20 22 23 25 28 31 32 34 35
17 17 17 17 17 18 18 17 17 17 17 17 17 17 17 17 17 16 16 16 15 15 14 14 13 14 14 14 14 14 13 13 13 13 12 12 12 11 11 11 10 10 10 10 11 11 10 10 10 9 9 9 9 9 9 9 9 9 9 8 7 6 6 6 7 8 9 10 11 11 12 14 15 17 18 19 21 23 25 27 29 31 32 34 35
17 17 17 17 17 17 17 17 17 17 17 17 17 17 17 17 16 16 15 15 14 14 14 14 13 14 14 13 13 13 13 13 13 13 12 12 12 11 11 11 10 10 10 9 9 9 8 8 7 7 7 7 7 7 7 7 7 7 7 6 6 6 6 6 7 8 9 10 11 12 13 15 16 18 19 20 21 24 26 28 30 32 33 34 35
17 17 17 17 17 17 17 17 17 17 17 17 18 18 17 17 16 15 15 15 14 14 14 14 14 14 14 14 13 13 13 13 13 13 12 12 12 11 11 10 10 10 9 9 8 8 7 7 6 6 6 5 5 5 5 5 5 5 5 5 5 5 6 7 8 9 9 10 11 12 14 16 17 18 19 20 22 25 26 28 31 32 33 34 36
17 17 17 17 17 17 17 17 17 17 17 17 17 18 17 17 16 15 15 14 14 14 13 13 13 13 13 13 14 14 14 13 13 13 13 12 12 11 11 10 10 9 9 8 8 7 7 6 6 5 4 4 3 4 4 4 4 4 4 4 4 5 6 7 8 9 10 11 12 13 15 17 18 18 19 21 23 26 28 29 31 32 33 35 36
Wind_Direction
287 271 262 257 256 258 262 263 265 272 280 286 294 301 308 314 319 323 327 332 335 337 339 339 335 331 329 329 332 336 338 339 339 338 338 337 337 337 337 339 341 342 342 341 340 341 341 340 342 344 345 345 343 344 344 342 342 342 342 343 342 341 342 340 340 342 340 338 338 341 344 345 343 341 340 338 336 335 335 335 334 333 331 331 330
304 284 267 259 256 256 258 261 262 266 272 279 288 296 302 308 313 317 323 328 332 333 335 335 331 327 325 325 327 332 335 336 336 336 335 335 335 335 335 336 338 339 339 339 338 337 337 336 339 341 340 340 340 342 342 341 342 342 340 340 340 340 341 341 340 343 343 339 337 340 341 341 340 339 339 339 339 339 338 335 333 331 330 330 331
313 297 276 263 257 255 256 258 259 261 264 270 280 289 297 303 308 313 319 325 328 329 330 330 327 323 322 322 324 328 332 333 334 333 333 333 332 333 334 334 335 336 336 336 335 334 335 336 337 339 339 338 340 340 341 342 341 341 339 338 340 340 341 342 342 344 344 340 339 340 339 339 341 341 340 341 340 339 338 335 333 333 331 329 329
314 304 288 270 259 254 254 255 256 257 258 263 271 280 289 297 302 307 313 319 323 323 324 325 323 321 320 319 321 325 329 331 331 331 330 330 329 330 331 331 332 333 333 333 333 333 334 335 335 336 337 337 338 339 340 340 338 338 339 339 340 340 340 341 342 343 343 341 339 339 339 340 340 339 338 338 338 337 337 337 333 330 329 327 325
311 306 295 279 265 256 253 253 253 254 255 260 266 273 282 289 295 300 306 314 317 317 318 320 320 319 317 317 319 322 326 329 329 329 328 327 327 327 328 329 328 329 330 329 330 331 331 332 332 333 333 334 335 336 336 336 336 338 340 340 340 340 340 341 342 342 341 339 338 338 338 339 338 336 336 335 335 335 337 337 331 326 325 322 319
309 305 297 286 272 260 254 253 253 253 254 257 262 268 275 282 289 295 303 310 312 311 313 316 315 315 315 314 316 319 323 327 328 328 327 325 326 326 326 326 325 326 327 326 327 328 328 329 329 329 331 332 333 333 334 335 337 338 339 338 338 338 339 340 339 339 337 336 337 337 336 336 336 336 336 336 336 335 334 332 327 324 326 323 317
308 305 297 289 278 266 258 255 254 253 252 254 258 263 270 278 285 293 300 307 308 306 308 311 311 312 312 311 313 317 320 324 326 326 325 324 323 324 324 325 324 325 324 324 325 326 326 327 327 328 330 331 332 333 333 335 335 335 334 335 336 337 336 336 335 334 334 334 334 334 335 335 336 336 336 336 335 332 331 330 329 329 332 332 327
310 306 298 290 281 272 263 257 254 252 251 253 257 261 268 276 283 291 298 303 305 304 305 308 308 309 310 310 312 315 317 321 324 325 324 323 322 322 322 323 322 322 322 322 322 323 323 323 324 325 327 328 330 330 330 332 331 331 332 333 333 334 332 332 332 331 331 333 333 334 334 334 333 333 333 332 332 333 335 335 335 333 334 336 333
314 309 302 293 285 276 266 259 255 254 252 253 258 262 267 274 280 288 296 301 304 304 303 304 305 305 306 308 309 311 314 317 320 322 322 320 319 320 320 320 319 319 318 318 318 319 319 319 320 321 323 324 324 325 326 327 327 327 328 328 328 329 329 329 329 330 331 331 332 333 334 333 332 333 334 336 338 338 338 335 334 332 331 332 332
318 313 307 299 289 278 267 260 257 256 255 256 259 263 266 271 277 284 291 297 300 300 300 300 300 301 303 305 306 308 310 313 316 319 320 318 317 317 316 316 315 314 313 313 314 314 314 315 316 317 319 319 320 320 321 321 322 322 322 323 324 325 326 327 328 329 331 332 332 333 335 336 335 335 337 338 338 337 335 332 331 331 330 329 331
320 315 310 303 291 279 269 262 258 257 257 257 259 263 265 268 274 280 287 293 295 295 296 295 296 298 301 302 303 305 307 309 312 315 316 315 314 313 314 314 312 311 309 308 308 309 310 311 312 313 313 314 314 315 316 317 319 320 320 322 323 323 325 326 327 329 331 332 333 333 334 336 336 334 334 333 333 333 332 332 331 331 332 332 333
322 317 312 304 293 283 273 265 259 258 258 259 260 262 264 266 271 278 284 289 291 292 292 292 293 297 300 301 302 303 303 304 307 310 312 311 309 308 310 311 310 308 306 304 303 304 305 306 307 308 307 308 309 309 311 313 314 316 318 319 320 322 324 325 326 329 329 331 333 331 331 333 334 331 329 329 330 331 331 332 332 332 335 335 333
321 318 313 305 296 286 277 267 260 258 257 259 261 263 264 265 270 276 281 286 289 289 290 290 292 295 299 300 301 301 300 300 302 305 307 307 306 304 303 305 307 306 303 301 298 297 299 300 301 302 301 302 304 304 306 310 311 313 315 316 318 319 321 322 324 326 327 328 331 331 329 329 330 330 328 327 328 331 331 332 333 332 334 335 333
319 316 312 306 298 288 279 269 261 257 256 258 261 264 264 264 268 274 278 282 284 286 287 289 291 293 296 298 299 299 297 297 298 300 301 302 302 299 295 295 300 301 299 296 292 290 292 293 294 296 296 298 299 300 303 306 307 310 311 313 315 315 317 319 320 323 325 325 326 327 326 326 326 326 326 326 328 332 333 332 333 331 331 333 332
316 315 311 306 299 290 279 270 262 257 256 257 261 264 264 264 267 271 274 278 280 282 284 286 288 291 293 295 296 295 294 293 294 295 295 294 294 293 288 286 291 294 293 292 288 286 286 287 289 291 292 294 296 297 300 302 304 307 308 309 311 311 313 315 317 319 321 320 322 323 323 323 324 325 326 327 329 332 332 331 330 328 327 328 328
314 314 311 305 300 292 281 272 263 257 255 257 261 264 265 264 265 267 269 273 276 278 281 283 285 289 291 293 293 292 291 290 290 292 290 286 286 287 284 281 282 284 286 287 286 285 285 285 286 287 289 290 292 294 296 299 301 302 303 304 305 306 309 311 313 315 316 317 319 321 322 323 324 326 327 327 327 329 328 327 326 324 323 323 323
314 313 310 305 300 294 285 275 266 259 257 259 261 263 263 263 263 265 268 271 274 276 278 280 283 286 287 288 288 288 288 288 288 288 285 280 281 282 280 278 277 277 280 283 284 284 285 284 284 285 286 287 289 292 294 296 298 299 300 300 300 302 304 307 309 312 314 316 317 318 320 321 321 323 324 323 323 323 323 323 322 322 322 323 324
315 314 311 305 299 294 287 279 271 265 262 261 260 261 260 261 263 266 269 271 273 275 277 277 280 283 283 284 285 285 286 287 287 285 280 276 277 279 278 276 274 274 274 276 280 282 283 283 283 283 284 286 288 290 292 293 295 297 298 298 297 298 300 301 304 307 309 311 312 313 315 316 317 320 321 320 320 320 320 321 322 322 323 325 327
317 316 313 308 301 295 289 281 275 269 265 261 259 259 259 261 265 268 270 272 274 275 278 279 280 282 283 283 284 285 286 287 285 283 278 274 275 277 276 273 273 273 271 270 274 279 281 282 281 281 282 284 285 287 289 290 292 296 297 296 295 297 299 299 300 301 302 302 303 305 308 311 314 317 318 319 318 318 318 319 320 322 323 325 328
318 317 315 311 305 299 293 284 276 268 263 259 258 258 260 262 265 268 270 273 276 277 279 281 282 283 284 284 284 285 285 284 282 280 277 272 273 276 276 273 273 273 271 267 268 272 277 279 280 280 281 281 281 283 284 286 290 295 297 296 296 298 298 298 298 299 300 300 302 305 307 309 313 316 317 317 317 316 316 317 319 322 323 324 327
318 316 314 310 305 300 294 286 277 269 263 261 259 260 262 264 267 270 273 275 277 279 281 283 284 284 284 284 283 282 281 281 280 280 277 272 270 273 274 274 273 272 269 267 267 269 272 274 277 278 277 276 277 279 281 284 288 294 296 295 298 300 299 298 298 299 302 304 305 308 309 310 312 314 314 315 315 313 314 316 319 320 321 322 325
314 312 309 306 302 298 293 286 280 275 270 268 268 267 269 271 274 276 278 278 280 281 282 283 284 285 285 285 284 282 281 281 281 281 279 274 269 268 272 274 273 269 268 270 272 273 272 272 272 272 271 272 273 277 280 283 287 294 296 296 299 302 301 301 301 302 304 306 306 309 311 311 311 312 311 311 311 311 312 315 317 318 319 322 324
309 307 304 302 299 297 293 289 285 282 278 276 275 274 275 276 277 278 279 279 280 281 282 284 284 285 286 286 286 287 286 285 285 283 281 277 269 266 269 272 271 269 270 273 276 277 275 272 270 269 268 269 273 276 279 282 288 294 295 296 300 301 301 302 303 304 305 305 306 309 312 312 311 311 311 310 310 311 312 315 317 318 318 321 322
305 303 301 299 297 295 293 291 289 287 284 283 281 280 280 279 279 280 281 282 283 284 285 286 286 286 287 287 288 289 288 287 287 284 282 279 271 266 268 271 272 271 273 276 276 275 274 272 270 269 268 269 273 275 277 282 289 293 294 294 297 298 299 301 302 303 304 304 305 309 312 312 311 311 312 312 313 313 313 315 318 318 318 319 320
304 303 302 300 298 296 294 292 290 288 287 286 284 283 283 283 283 284 285 285 286 287 287 286 286 285 286 286 286 286 286 286 286 283 280 279 274 268 268 271 273 274 275 277 276 273 271 270 269 268 269 269 271 273 277 283 287 290 292 293 294 295 297 299 300 301 302 303 306 310 312 311 311 311 312 313 314 313 312 313 316 318 317 317 317
306 305 304 303 301 299 297 295 293 292 290 289 289 288 287 287 287 287 288 288 287 287 286 286 285 284 285 286 287 286 286 286 287 285 280 277 274 267 265 267 271 275 278 280 279 274 269 268 268 269 270 270 270 272 276 280 283 286 289 290 292 294 296 297 298 299 302 303 306 309 310 310 310 311 311 312 313 313 314 316 319 321 320 318 319
308 307 305 304 302 301 300 298 296 295 293 292 292 292 291 291 290 290 290 289 288 288 287 287 288 288 288 289 290 290 289 289 289 288 282 278 274 269 265 264 268 272 277 280 278 274 271 271 273 274 273 272 271 272 274 277 279 284 287 289 291 293 293 294 297 299 300 302 304 306 309 310 310 310 309 310 313 316 319 321 323 323 323 322 323
310 309 307 306 305 304 304 302 301 300 298 297 296 296 296 295 294 294 295 293 292 292 291 292 292 293 292 292 292 292 292 291 291 290 288 284 279 275 274 275 275 277 278 277 276 276 276 276 277 276 273 271 271 271 273 276 279 282 286 288 291 292 292 293 296 296 298 300 303 306 309 310 309 309 308 311 316 321 323 323 322 322 324 325 326
311 310 309 307 306 305 305 305 304 303 303 302 301 301 300 299 298 298 297 296 295 294 294 294 295 294 293 294 295 295 295 295 293 292 292 290 285 282 281 281 282 282 281 279 277 276 276 277 277 277 274 272 271 272 273 275 278 281 285 288 290 290 290 291 292 294 297 301 304 307 309 309 309 309 310 313 320 325 324 322 321 323 324 326 328
313 312 311 309 308 307 306 306 306 305 304 304 303 303 302 301 300 300 297 295 294 293 293 294 295 294 294 294 295 295 296 296 294 292 292 290 288 286 285 284 285 284 283 281 280 278 278 279 280 281 279 277 276 275 275 275 276 279 284 287 287 284 285 288 292 295 298 301 304 307 308 308 309 311 314 317 322 325 323 322 323 324 325 327 329
317 316 316 315 314 313 312 311 310 308 308 308 308 307 307 304 301 300 300 298 296 293 291 290 290 291 292 293 292 292 293 293 292 290 289 286 283 281 281 281 283 284 284 283 282 282 282 284 285 286 285 282 279 276 273 272 274 278 280 281 281 282 287 292 295 298 299 301 303 306 308 308 309 313 316 319 322 324 323 323 324 324 326 329 330
321 320 320 319 318 317 316 315 315 313 312 312 312 311 311 309 306 302 300 302 302 299 295 292 289 288 289 291 292 292 291 291 290 289 287 284 282 279 277 275 274 274 276 278 279 281 283 285 287 288 287 285 284 280 276 272 272 275 277 277 279 285 292 295 298 299 299 300 302 304 305 306 308 312 316 319 322 323 324 324 325 326 328 330 331
322 322 321 321 320 319 318 317 317 316 315 314 314 313 313 312 312 309 304 301 302 302 299 295 292 290 291 291 291 291 290 289 288 286 284 283 281 280 278 276 272 268 266 267 271 276 280 282 285 287 289 290 290 286 280 275 273 275 277 278 280 285 291 295 297 298 297 298 301 303 303 305 308 311 316 320 323 324 324 325 326 328 330 331 331
323 323 323 323 323 322 321 321 319 319 318 317 316 315 315 315 315 315 313 309 305 303 300 297 294 292 291 291 289 288 287 284 281 281 282 282 281 279 277 275 274 270 264 261 264 269 274 279 283 287 289 290 290 286 281 276 272 272 274 277 279 284 289 292 294 294 294 296 299 300 302 306 310 313 317 321 323 323 323 325 327 330 332 332 332
324 324 324 325 324 324 323 322 321 321 320 319 319 319 319 318 317 318 318 317 315 312 309 306 302 298 296 293 289 287 286 284 281 279 280 281 281 280 277 275 273 272 268 265 265 267 271 276 281 286 287 285 283 283 281 278 274 271 271 274 278 281 285 288 290 290 292 294 297 299 302 307 311 314 316 321 323 322 323 326 329 331 332 332 333
322 323 324 324 324 324 324 322 322 322 322 321 322 321 320 320 318 317 317 317 315 314 311 308 305 302 299 296 293 290 289 288 286 284 281 278 276 276 277 276 275 273 271 269 270 271 272 275 279 284 287 283 278 276 278 278 277 274 272 273 275 278 282 285 286 288 289 292 295 299 302 307 310 311 314 318 321 321 324 328 330 332 333 333 334
320 320 322 323 323 324 325 324 323 323 323 322 322 321 320 319 318 316 315 314 312 311 310 308 305 302 298 293 290 290 289 287 286 285 282 278 274 272 272 274 275 275 274 272 272 271 272 274 277 282 287 285 277 271 271 276 279 278 274 274 277 280 282 284 285 286 288 291 295 298 301 305 308 309 313 317 320 322 325 328 329 331 333 334 335
321 321 321 322 323 323 324 325 324 324 324 323 322 321 320 319 317 316 315 314 313 312 311 310 309 308 305 299 295 293 292 290 287 284 281 280 277 274 272 272 273 275 276 275 274 272 271 272 275 279 285 286 278 269 267 272 278 280 279 281 283 283 282 282 283 285 289 291 294 298 302 304 306 309 313 318 321 322 326 329 330 331 334 336 337
321 322 321 322 323 324 323 324 324 324 325 324 322 322 321 319 318 317 316 315 314 313 312 311 311 310 308 306 303 302 299 297 294 290 285 283 281 279 279 278 275 274 274 274 274 273 270 270 271 275 279 281 276 269 268 272 278 284 287 289 288 284 280 280 282 284 288 292 294 298 302 303 305 310 315 319 322 323 326 329 332 333 336 337 337
319 320 320 321 323 323 323 325 325 325 325 324 323 323 322 321 320 320 318 317 316 314 313 313 313 312 310 309 308 307 305 303 302 301 297 292 288 286 286 285 280 273 270 270 272 272 269 267 266 268 273 275 273 269 271 277 284 291 294 293 289 282 278 279 282 284 286 289 293 298 300 302 305 311 317 320 321 323 326 330 333 335 337 337 335
319 320 320 321 322 322 323 325 325 325 325 324 323 323 322 321 321 320 319 318 317 316 315 315 314 313 312 310 308 307 306 305 305 304 302 299 295 292 290 289 284 275 268 266 268 272 271 268 265 265 270 274 274 273 278 287 290 292 292 290 286 281 277 277 280 282 284 287 292 296 298 301 307 314 319 321 321 324 328 330 333 337 337 336 335
318 317 319 320 320 320 321 322 323 323 323 323 323 321 320 320 320 320 319 319 318 317 316 315 314 312 310 309 307 305 304 304 304 303 302 300 297 293 290 287 284 277 268 264 265 269 273 272 271 271 274 277 279 279 282 285 285 286 286 285 281 278 276 275 276 278 282 286 293 295 297 303 311 317 320 321 322 325 328 331 335 337 337 336 336
316 316 318 318 317 319 319 319 321 322 322 321 321 320 319 320 320 319 319 318 317 317 316 315 314 312 311 310 309 308 307 306 304 303 302 299 296 292 288 284 281 277 271 266 264 265 269 270 270 272 275 277 278 278 278 278 280 281 281 280 277 275 274 272 272 275 281 287 291 294 299 307 315 318 320 322 324 325 329 334 337 337 336 336 337
314 314 315 314 315 317 317 317 319 320 320 320 319 319 319 319 319 319 319 318 317 318 318 317 316 316 316 316 314 313 312 311 308 306 305 303 300 296 291 287 283 278 273 269 264 263 264 265 265 266 268 270 272 273 274 275 277 278 276 275 274 273 272 270 270 274 280 284 288 295 304 311 317 319 321 324 325 326 331 336 337 336 336 337 337
312 312 312 312 313 314 314 316 317 318 317 317 317 316 317 317 318 318 319 318 318 319 320 320 320 320 320 321 320 318 317 315 314 312 311 307 304 301 296 293 290 285 279 274 269 266 266 266 266 265 265 266 269 271 273 273 273 272 271 271 273 271 267 266 269 275 281 285 292 302 310 315 319 321 323 325 326 329 334 338 337 336 337 337 338
311 311 312 312 313 313 314 315 316 316 316 316 315 316 316 317 318 319 320 320 320 321 322 322 322 320 320 321 321 320 320 319 317 317 315 312 308 304 299 297 294 289 284 280 275 271 269 269 270 270 270 270 271 271 270 269 267 266 267 270 271 268 264 265 271 278 284 292 302 310 315 319 322 324 325 327 328 332 336 337 336 336 337 337 338
314 314 314 315 315 315 315 315 315 316 315 315 315 316 316 317 318 319 320 320 321 322 322 322 321 320 320 322 322 322 322 322 321 321 320 316 311 307 303 299 295 290 285 281 278 275 273 273 275 276 276 275 272 268 266 266 265 266 269 270 267 264 263 267 275 281 289 300 311 316 318 322 325 325 326 329 331 334 336 335 335 336 337 338 339
318 318 318 319 318 317 316 316 316 315 314 313 314 316 316 317 318 318 318 319 320 320 320 319 319 318 319 321 322 323 323 323 323 322 319 316 313 310 307 304 300 296 291 286 284 285 284 283 282 279 274 270 267 264 264 266 265 266 267 266 264 264 266 272 281 292 301 310 315 317 319 322 325 326 328 332 333 334 334 334 335 336 337 338 340
320 320 321 321 320 318 317 316 315 315 314 313 314 315 316 318 318 317 317 318 319 318 318 318 317 317 318 319 320 322 322 323 323 322 318 316 314 312 312 311 308 304 301 297 296 297 296 291 286 280 273 269 267 264 263 263 261 260 260 258 259 265 272 280 291 302 308 310 314 317 320 323 326 328 331 333 333 332 333 333 335 336 338 339 341
322 322 322 321 320 319 318 316 315 315 314 313 314 315 316 318 318 317 316 317 316 315 315 315 315 316 318 318 318 319 321 322 323 322 320 320 319 318 318 318 314 311 310 307 305 304 299 291 286 284 280 277 273 268 262 257 252 249 249 251 257 267 280 290 299 305 308 312 317 319 321 324 328 331 333 333 331 330 332 334 335 337 338 339 340
323 322 321 320 319 319 317 315 314 313 312 311 313 314 315 317 319 318 316 314 313 313 313 313 314 315 315 315 316 317 319 321 322 323 324 326 327 325 324 322 319 316 314 310 306 306 303 297 295 296 292 285 273 260 252 247 243 241 246 254 267 281 292 300 306 310 313 317 319 320 323 327 331 332 332 331 329 330 333 335 335 336 338 339 341
Height
1545 1545 1545 1544 1544 1544 1543 1543 1542 1541 1540 1539 1538 1537 1535 1534 1532 1531 1529 1528 1526 1524 1522 1521 1519 1518 1517 1515 1513 1511 1510 1508 1506 1505 1503 1502 1501 1500 1498 1497 1496 1495 1493 1492 1491 1490 1490 1489 1488 1487 1486 1486 1485 1484 1483 1482 1481 1481 1479 1479 1478 1477 1476 1475 1474 1473 1471 1470 1468 1467 1466 1464 1463 1461 1460 1459 1457 1455 1453 1451 1449 1448 1447 1446 1444
1543 1542 1542 1542 1542 1542 1541 1541 1540 1539 1538 1537 1536 1535 1533 1532 1531 1529 1528 1526 1525 1523 1521 1519 1518 1517 1516 1514 1513 1510 1509 1507 1506 1504 1503 1501 1500 1499 1498 1496 1495 1494 1493 1492 1491 1490 1489 1488 1488 1487 1486 1485 1485 1484 1483 1482 1481 1480 1479 1478 1477 1476 1475 1474 1473 1472 1471 1469 1468 1467 1465 1464 1462 1461 1459 1457 1455 1454 1452 1450 1448 1447 1446 1444 1443
1541 1540 1540 1539 1540 1539 1539 1539 1538 1537 1536 1535 1534 1533 1532 1531 1529 1528 1526 1524 1523 1521 1519 1518 1517 1516 1515 1513 1512 1510 1508 1506 1505 1504 1502 1501 1499 1498 1497 1496 1494 1493 1492 1491 1490 1489 1489 1488 1487 1486 1486 1485 1484 1483 1482 1481 1481 1480 1479 1478 1477 1476 1475 1473 1472 1471 1470 1468 1467 1466 1464 1463 1461 1460 1458 1456 1454 1452 1451 1449 1447 1446 1444 1443 1441
1538 1537 1537 1536 1536 1536 1536 1536 1535 1535 1534 1533 1532 1531 1530 1529 1527 1526 1524 1523 1521 1519 1518 1516 1515 1514 1513 1512 1511 1509 1507 1505 1504 1503 1501 1500 1499 1497 1496 1495 1494 1493 1492 1491 1490 1489 1488 1487 1486 1486 1485 1484 1483 1483 1482 1481 1480 1479 1478 1477 1476 1475 1473 1472 1471 1470 1468 1467 1466 1464 1463 1461 1460 1458 1456 1455 1453 1452 1450 1448 1447 1445 1443 1441 1440
1536 1535 1534 1533 1533 1533 1533 1533 1532 1532 1532 1531 1530 1529 1528 1526 1525 1524 1523 1521 1519 1518 1516 1515 1514 1513 1512 1511 1510 1508 1506 1504 1503 1501 1500 1499 1498 1496 1495 1494 1493 1492 1491 1490 1489 1488 1487 1487 1486 1485 1484 1484 1483 1482 1481 1480 1479 1478 1477 1476 1475 1474 1472 1471 1470 1469 1467 1466 1465 1463 1462 1460 1459 1457 1455 1453 1452 1451 1450 1448 1446 1444 1443 1441 1439
1533 1532 1531 1530 1530 1530 1530 1530 1530 1530 1529 1528 1527 1526 1525 1524 1523 1522 1520 1519 1518 1516 1515 1513 1512 1512 1511 1510 1508 1506 1504 1503 1501 1500 1499 1497 1496 1495 1494 1493 1492 1491 1490 1489 1488 1487 1486 1486 1485 1484 1484 1483 1482 1481 1480 1479 1478 1477 1476 1475 1474 1473 1472 1470 1469 1468 1467 1465 1464 1462 1461 1459 1458 1456 1454 1451 1450 1448 1447 1447 1446 1444 1442 1441 1439
1530 1529 1528 1527 1526 1526 1527 1528 1528 1527 1527 1526 1525 1524 1523 1522 1521 1520 1518 1517 1516 1515 1513 1511 1511 1510 1509 1508 1507 1505 1503 1501 1500 1498 1497 1496 1495 1494 1493 1492 1491 1490 1489 1488 1487 1486 1485 1485 1484 1483 1482 1481 1481 1480 1479 1478 1477 1476 1475 1474 1473 1472 1471 1470 1469 1467 1466 1465 1463 1462 1460 1458 1456 1454 1453 1451 1449 1447 1445 1444 1443 1442 1440 1438 1437
1527 1526 1524 1523 1523 1523 1524 1525 1525 1524 1524 1523 1523 1522 1521 1520 1519 1518 1516 1515 1514 1513 1511 1510 1509 1508 1508 1506 1505 1504 1502 1500 1498 1497 1496 1494 1493 1492 1491 1490 1489 1488 1487 1486 1486 1485 1484 1483 1482 1482 1481 1480 1479 1478 1478 1477 1476 1475 1474 1473 1472 1471 1470 1469 1468 1467 1465 1464 1462 1461 1459 1457 1455 1454 1452 1450 1449 1446 1444 1441 1440 1439 1438 1436 1434
1524 1522 1521 1520 1519 1520 1520 1521 1521 1522 1521 1521 1521 1520 1519 1518 1517 1516 1515 1513 1512 1511 1510 1509 1507 1506 1506 1505 1503 1502 1500 1498 1496 1495 1494 1493 1492 1491 1490 1489 1488 1487 1486 1485 1484 1483 1483 1482 1481 1480 1480 1479 1478 1477 1476 1476 1475 1474 1473 1472 1471 1470 1469 1468 1467 1465 1464 1463 1461 1460 1458 1456 1454 1452 1451 1449 1446 1444 1443 1441 1439 1437 1436 1435 1434
1522 1520 1518 1517 1516 1516 1516 1517 1518 1519 1519 1519 1519 1518 1517 1516 1514 1513 1512 1511 1510 1509 1508 1507 1505 1504 1504 1503 1501 1500 1498 1497 1495 1493 1492 1491 1490 1489 1488 1487 1486 1485 1484 1483 1482 1482 1481 1480 1479 1479 1478 1477 1477 1476 1475 1474 1474 1473 1472 1471 1470 1469 1468 1467 1466 1464 1463 1461 1460 1458 1457 1455 1453 1450 1449 1447 1446 1444 1442 1440 1438 1436 1434 1432 1432
1520 1517 1515 1514 1513 1512 1512 1513 1515 1516 1517 1517 1516 1515 1514 1513 1512 1511 1510 1509 1508 1507 1506 1505 1504 1502 1501 1501 1499 1498 1497 1495 1493 1492 1491 1489 1488 1487 1486 1485 1484 1483 1482 1481 1481 1480 1479 1479 1478 1477 1477 1476 1475 1475 1474 1473 1472 1471 1470 1469 1468 1468 1467 1466 1464 1463 1462 1460 1458 1457 1455 1454 1452 1450 1448 1447 1445 1444 1442 1439 1437 1435 1433 1430 1428
1517 1515 1513 1511 1510 1509 1509 1510 1512 1513 1514 1514 1513 1513 1512 1511 1510 1509 1507 1506 1506 1505 1504 1503 1501 1500 1499 1498 1497 1496 1495 1493 1491 1490 1489 1488 1486 1485 1484 1483 1482 1481 1481 1480 1479 1478 1478 1477 1476 1476 1475 1475 1474 1473 1473 1472 1471 1470 1469 1468 1467 1466 1465 1464 1463 1462 1460 1459 1458 1456 1454 1453 1451 1449 1447 1445 1444 1443 1441 1439 1436 1434 1432 1430 1427
1515 1513 1510 1509 1507 1506 1506 1507 1508 1510 1511 1511 1511 1510 1509 1508 1507 1506 1505 1504 1503 1502 1501 1500 1499 1498 1497 1496 1495 1494 1493 1491 1489 1488 1486 1485 1484 1483 1482 1481 1480 1480 1479 1478 1477 1477 1476 1476 1475 1474 1474 1473 1473 1472 1471 1470 1469 1468 1468 1467 1466 1465 1464 1462 1461 1460 1459 1458 1456 1455 1453 1451 1450 1449 1446 1444 1442 1441 1439 1438 1436 1433 1431 1430 1427
1513 1510 1508 1506 1505 1504 1503 1503 1504 1506 1507 1507 1508 1507 1507 1506 1505 1503 1502 1501 1500 1500 1499 1498 1497 1496 1494 1493 1492 1492 1491 1489 1487 1486 1484 1483 1482 1481 1480 1479 1479 1478 1477 1476 1476 1475 1474 1474 1473 1473 1472 1472 1471 1470 1469 1469 1468 1467 1466 1465 1464 1463 1462 1461 1460 1459 1458 1456 1455 1454 1452 1450 1449 1447 1446 1444 1442 1440 1438 1435 1434 1432 1430 1428 1426
1510 1508 1505 1504 1502 1501 1500 1500 1501 1502 1504 1504 1504 1504 1504 1503 1502 1501 1499 1498 1498 1497 1496 1495 1494 1493 1492 1491 1490 1489 1488 1487 1485 1484 1482 1481 1480 1479 1479 1478 1477 1476 1475 1475 1474 1473 1473 1472 1472 1471 1470 1470 1469 1468 1468 1467 1466 1465 1465 1464 1463 1462 1461 1460 1459 1457 1456 1455 1454 1453 1451 1450 1448 1446 1444 1443 1441 1439 1437 1434 1432 1429 1427 1426 1425
1508 1506 1503 1501 1499 1498 1498 1497 1498 1499 1500 1501 1501 1501 1501 1500 1499 1498 1496 1496 1495 1494 1493 1493 1492 1491 1489 1488 1487 1487 1486 1484 1483 1481 1480 1479 1478 1477 1476 1476 1475 1474 1474 1473 1472 1472 1471 1470 1470 1469 1468 1468 1467 1466 1465 1465 1465 1464 1463 1462 1461 1460 1459 1458 1457 1456 1455 1453 1452 1451 1450 1448 1447 1445 1443 1441 1439 1438 1436 1434 1432 1429 1426 1423 1422
1506 1503 1501 1499 1497 1496 1495 1495 1495 1495 1496 1497 1498 1498 1498 1497 1496 1495 1494 1493 1492 1491 1491 1490 1489 1488 1487 1486 1485 1484 1483 1482 1480 1479 1478 1476 1475 1475 1474 1473 1473 1472 1472 1471 1470 1469 1469 1468 1468 1467 1466 1466 1465 1464 1463 1463 1463 1462 1461 1461 1460 1459 1458 1457 1456 1454 1453 1452 1450 1449 1448 1447 1446 1445 1443 1441 1439 1437 1435 1433 1431 1428 1424 1421 1417
1503 1501 1499 1497 1495 1494 1493 1492 1492 1493 1493 1494 1495 1495 1494 1494 1493 1492 1491 1490 1490 1489 1488 1487 1486 1485 1484 1483 1482 1481 1480 1479 1478 1477 1475 1474 1473 1472 1472 1471 1470 1470 1469 1469 1468 1467 1467 1466 1466 1465 1464 1463 1463 1462 1461 1461 1460 1460 1459 1459 1458 1457 1456 1455 1454 1453 1452 1450 1449 1448 1446 1445 1445 1443 1442 1440 1438 1436 1434 1431 1429 1426 1423 1420 1416
1500 1499 1497 1495 1494 1492 1491 1490 1490 1490 1491 1491 1491 1491 1491 1491 1490 1489 1488 1487 1487 1486 1485 1484 1483 1483 1481 1480 1479 1478 1477 1476 1475 1474 1473 1471 1470 1469 1469 1468 1468 1467 1467 1466 1466 1465 1464 1464 1464 1463 1462 1461 1460 1460 1459 1458 1458 1457 1457 1456 1456 1455 1454 1453 1452 1451 1450 1449 1448 1447 1446 1444 1443 1442 1441 1439 1437 1435 1433 1430 1427 1425 1422 1419 1416
1498 1496 1495 1494 1492 1490 1489 1488 1488 1488 1488 1488 1488 1488 1487 1488 1487 1486 1485 1484 1483 1483 1482 1481 1480 1479 1478 1477 1476 1475 1474 1473 1472 1471 1470 1469 1467 1466 1466 1466 1465 1465 1464 1464 1463 1463 1462 1462 1461 1461 1460 1459 1458 1458 1457 1456 1455 1455 1455 1454 1453 1453 1452 1451 1450 1449 1448 1448 1446 1445 1444 1443 1442 1440 1439 1438 1436 1434 1432 1429 1426 1424 1421 1418 1416
1496 1495 1493 1492 1491 1489 1488 1487 1486 1486 1486 1485 1485 1485 1485 1484 1484 1483 1482 1481 1480 1480 1479 1478 1477 1476 1475 1474 1473 1472 1471 1470 1469 1468 1467 1466 1465 1463 1463 1463 1463 1462 1461 1461 1461 1461 1460 1459 1459 1458 1457 1457 1456 1455 1455 1454 1453 1453 1452 1452 1451 1451 1450 1449 1448 1447 1446 1445 1444 1443 1442 1441 1440 1439 1437 1436 1435 1432 1430 1428 1425 1423 1420 1417 1415
1494 1493 1492 1490 1489 1488 1487 1486 1485 1484 1484 1483 1483 1483 1482 1482 1481 1481 1480 1479 1477 1476 1475 1474 1473 1472 1471 1470 1469 1468 1468 1467 1466 1464 1463 1463 1462 1461 1460 1460 1460 1459 1458 1458 1458 1458 1457 1457 1456 1456 1455 1454 1454 1453 1452 1451 1451 1451 1450 1449 1449 1448 1447 1446 1446 1445 1444 1443 1442 1441 1440 1439 1438 1437 1435 1434 1433 1431 1429 1427 1424 1421 1419 1416 1414
1492 1491 1490 1488 1488 1487 1485 1485 1484 1482 1482 1481 1481 1480 1480 1479 1478 1477 1476 1475 1474 1473 1472 1471 1469 1468 1467 1467 1466 1465 1464 1463 1462 1461 1460 1460 1459 1458 1457 1457 1457 1456 1456 1455 1455 1455 1455 1454 1453 1453 1452 1452 1451 1451 1450 1449 1449 1449 1448 1447 1446 1446 1445 1444 1443 1443 1442 1441 1440 1439 1438 1436 1435 1434 1433 1432 1430 1429 1427 1425 1423 1420 1417 1415 1413
1490 1488 1488 1486 1486 1485 1483 1482 1482 1480 1480 1479 1478 1477 1476 1475 1475 1474 1473 1472 1470 1469 1468 1467 1466 1465 1464 1463 1463 1461 1460 1459 1459 1458 1457 1456 1456 1455 1454 1454 1454 1454 1453 1453 1452 1452 1451 1451 1451 1450 1450 1449 1449 1449 1448 1447 1447 1447 1446 1445 1444 1444 1443 1442 1441 1440 1439 1438 1437 1437 1436 1434 1433 1431 1430 1429 1427 1426 1424 1423 1421 1419 1416 1413 1412
1488 1486 1485 1484 1483 1482 1481 1480 1479 1478 1477 1476 1475 1474 1473 1472 1471 1470 1469 1468 1467 1465 1465 1463 1462 1461 1460 1459 1459 1458 1457 1456 1456 1455 1454 1453 1453 1452 1452 1451 1451 1451 1450 1450 1450 1449 1448 1448 1448 1447 1447 1447 1447 1446 1446 1445 1445 1444 1444 1443 1442 1442 1441 1440 1439 1438 1437 1436 1435 1434 1433 1432 1431 1429 1427 1426 1425 1423 1421 1420 1419 1417 1414 1411 1409
1486 1484 1483 1482 1481 1480 1479 1478 1477 1475 1474 1473 1472 1471 1470 1469 1468 1467 1466 1465 1463 1462 1461 1460 1459 1458 1456 1456 1455 1455 1454 1453 1452 1453 1452 1451 1450 1450 1449 1449 1448 1448 1448 1447 1447 1446 1445 1445 1445 1445 1445 1444 1444 1444 1444 1443 1442 1442 1441 1441 1440 1440 1439 1438 1437 1436 1435 1434 1433 1432 1431 1430 1428 1427 1425 1424 1423 1421 1418 1417 1415 1414 1411 1408 1406
1484 1482 1481 1480 1479 1477 1476 1475 1474 1473 1472 1470 1469 1468 1467 1466 1465 1463 1463 1461 1460 1459 1458 1456 1456 1455 1453 1453 1452 1451 1451 1450 1450 1449 1449 1449 1448 1448 1447 1447 1446 1446 1445 1445 1444 1443 1442 1442 1442 1442 1442 1442 1442 1441 1441 1441 1440 1440 1439 1439 1438 1437 1436 1435 1434 1433 1432 1431 1430 1430 1429 1427 1426 1425 1423 1422 1421 1419 1417 1414 1412 1410 1407 1404 1402
1481 1480 1479 1477 1476 1475 1474 1473 1471 1470 1469 1468 1467 1465 1464 1463 1462 1461 1460 1458 1457 1456 1454 1453 1453 1452 1450 1450 1449 1448 1448 1447 1446 1446 1446 1446 1445 1445 1445 1444 1444 1443 1443 1442 1441 1440 1440 1440 1439 1439 1439 1439 1439 1439 1439 1438 1438 1437 1437 1437 1436 1435 1434 1433 1432 1432 1430 1429 1428 1427 1426 1425 1424 1423 1421 1420 1419 1417 1415 1413 1410 1407 1405 1402 1399
1479 1478 1476 1475 1474 1473 1472 1470 1469 1467 1466 1465 1464 1463 1462 1460 1459 1458 1457 1456 1454 1453 1452 1451 1450 1449 1448 1447 1446 1445 1445 1444 1443 1443 1443 1443 1442 1442 1442 1441 1441 1441 1440 1439 1438 1438 1437 1437 1437 1437 1436 1436 1436 1437 1436 1436 1436 1435 1435 1434 1434 1433 1432 1431 1430 1430 1428 1427 1426 1425 1424 1423 1421 1420 1419 1418 1417 1415 1413 1411 1408 1405 1402 1400 1397
1478 1476 1474 1473 1472 1470 1469 1468 1466 1465 1463 1462 1461 1460 1459 1458 1456 1455 1454 1453 1452 1451 1449 1448 1447 1446 1445 1445 1444 1443 1442 1441 1441 1440 1439 1439 1439 1439 1439 1438 1438 1438 1437 1436 1435 1435 1435 1435 1435 1434 1434 1434 1434 1434 1434 1433 1433 1433 1433 1432 1432 1431 1430 1429 1428 1427 1426 1425 1424 1423 1422 1420 1419 1418 1416 1415 1414 1413 1411 1409 1406 1403 1400 1398 1395
1476 1474 1473 1472 1470 1468 1467 1466 1464 1463 1461 1460 1458 1457 1457 1456 1455 1453 1452 1451 1450 1449 1447 1446 1445 1444 1443 1442 1442 1441 1440 1439 1438 1437 1437 1436 1436 1436 1436 1435 1435 1435 1434 1433 1432 1432 1432 1432 1432 1432 1432 1431 1431 1431 1431 1431 1431 1430 1430 1430 1430 1429 1428 1427 1426 1425 1424 1423 1422 1421 1420 1418 1416 1415 1414 1413 1412 1411 1409 1407 1404 1402 1399 1396 1393
1474 1473 1471 1470 1468 1467 1465 1464 1462 1461 1460 1458 1457 1455 1453 1453 1453 1452 1450 1449 1447 1447 1446 1444 1443 1442 1441 1440 1439 1438 1438 1437 1436 1435 1434 1433 1433 1432 1432 1432 1432 1432 1431 1430 1429 1429 1429 1429 1429 1429 1429 1429 1429 1429 1428 1428 1428 1428 1427 1427 1427 1426 1425 1424 1423 1423 1422 1421 1420 1419 1417 1416 1415 1414 1412 1411 1409 1408 1406 1404 1402 1399 1397 1394 1391
1472 1471 1470 1468 1467 1465 1464 1462 1461 1459 1458 1456 1455 1453 1451 1450 1449 1449 1448 1447 1446 1444 1443 1442 1441 1440 1439 1438 1437 1436 1435 1434 1433 1432 1432 1431 1430 1430 1429 1429 1429 1429 1428 1427 1426 1426 1426 1426 1426 1426 1426 1425 1426 1426 1425 1425 1425 1425 1424 1424 1424 1424 1423 1422 1421 1420 1419 1418 1417 1416 1415 1414 1413 1412 1411 1409 1408 1405 1403 1402 1400 1397 1394 1391 1388
1471 1469 1468 1466 1465 1463 1462 1461 1459 1458 1456 1455 1453 1451 1450 1448 1446 1445 1445 1444 1444 1443 1441 1440 1439 1437 1436 1435 1434 1433 1432 1431 1431 1430 1429 1428 1428 1427 1426 1426 1425 1425 1425 1425 1424 1423 1423 1423 1423 1423 1423 1423 1423 1423 1422 1422 1422 1422 1422 1421 1421 1421 1420 1420 1419 1418 1417 1416 1415 1414 1413 1412 1411 1410 1408 1407 1406 1404 1402 1400 1397 1395 1392 1388 1385
1469 1468 1466 1465 1463 1462 1460 1459 1457 1456 1455 1453 1452 1450 1449 1447 1446 1444 1443 1442 1441 1440 1439 1438 1437 1435 1434 1433 1432 1430 1429 1428 1428 1427 1427 1426 1425 1424 1424 1423 1423 1423 1423 1422 1422 1421 1421 1421 1421 1421 1421 1420 1420 1420 1420 1419 1419 1419 1419 1418 1418 1418 1418 1417 1417 1416 1415 1414 1413 1412 1412 1411 1409 1408 1406 1405 1403 1401 1400 1398 1396 1393 1390 1387 1383
1468 1467 1465 1464 1462 1461 1459 1458 1456 1455 1453 1452 1450 1449 1447 1446 1444 1443 1441 1440 1439 1438 1437 1436 1435 1434 1432 1431 1429 1428 1427 1426 1425 1425 1424 1423 1422 1422 1421 1420 1420 1420 1420 1419 1419 1419 1419 1419 1419 1418 1418 1418 1418 1418 1417 1417 1417 1416 1416 1416 1416 1416 1415 1415 1414 1413 1413 1412 1411 1410 1410 1409 1408 1406 1404 1403 1402 1400 1398 1396 1394 1391 1388 1385 1381
1467 1465 1464 1462 1461 1459 1458 1456 1455 1453 1452 1450 1449 1447 1446 1444 1443 1441 1440 1438 1437 1436 1434 1433 1432 1431 1430 1429 1427 1425 1424 1424 1423 1422 1421 1421 1420 1419 1419 1418 1417 1417 1417 1417 1417 1416 1416 1416 1416 1416 1416 1416 1415 1415 1415 1415 1414 1414 1414 1414 1413 1413 1413 1413 1412 1411 1410 1410 1409 1409 1408 1407 1406 1404 1403 1401 1400 1399 1397 1395 1392 1390 1387 1384 1380
1465 1464 1462 1461 1459 1458 1457 1455 1453 1452 1450 1449 1447 1446 1444 1443 1441 1440 1438 1437 1435 1434 1432 1431 1429 1428 1427 1426 1425 1423 1422 1421 1421 1420 1419 1418 1417 1417 1416 1415 1415 1414 1414 1414 1414 1413 1413 1414 1414 1414 1414 1413 1413 1413 1413 1413 1413 1412 1412 1412 1411 1411 1411 1410 1410 1409 1408 1408 1407 1407 1406 1406 1404 1402 1401 1400 1398 1397 1395 1393 1390 1388 1385 1383 1379
1464 1462 1461 1459 1458 1457 1455 1454 1452 1451 1449 1447 1446 1444 1443 1441 1440 1438 1437 1435 1433 1432 1430 1429 1427 1426 1424 1423 1422 1421 1420 1419 1418 1417 1417 1416 1415 1414 1413 1412 1412 1412 1412 1411 1411 1411 1411 1411 1411 1411 1411 1411 1411 1411 1411 1411 1411 1410 1410 1410 1409 1409 1408 1408 1407 1407 1406 1406 1406 1405 1404 1404 1402 1401 1400 1398 1397 1395 1393 1391 1389 1386 1383 1380 1377
1463 1461 1459 1458 1457 1455 1454 1452 1451 1449 1447 1446 1444 1443 1441 1439 1438 1436 1435 1433 1431 1430 1428 1427 1425 1424 1422 1421 1420 1418 1417 1416 1415 1415 1414 1413 1413 1412 1411 1410 1410 1409 1409 1409 1409 1409 1409 1408 1409 1409 1409 1409 1409 1409 1409 1409 1408 1408 1408 1408 1407 1407 1406 1405 1405 1405 1404 1404 1404 1403 1403 1402 1400 1400 1398 1397 1395 1394 1391 1389 1387 1385 1382 1378 1374
1461 1460 1458 1456 1455 1453 1452 1450 1449 1447 1446 1444 1442 1441 1439 1438 1436 1434 1433 1431 1430 1428 1427 1425 1424 1422 1421 1419 1418 1417 1416 1414 1414 1413 1412 1411 1410 1410 1409 1408 1407 1407 1407 1407 1407 1407 1407 1407 1407 1407 1406 1407 1407 1406 1406 1406 1406 1406 1406 1405 1405 1404 1404 1404 1403 1403 1402 1402 1402 1401 1401 1400 1399 1398 1397 1395 1394 1392 1390 1388 1385 1383 1380 1377 1373
1459 1458 1456 1455 1453 1451 1450 1449 1447 1446 1444 1442 1441 1439 1438 1436 1434 1433 1431 1429 1428 1426 1425 1424 1422 1421 1420 1418 1417 1416 1414 1413 1412 1411 1410 1409 1409 1408 1407 1406 1405 1405 1404 1404 1404 1404 1405 1405 1405 1405 1404 1404 1404 1404 1404 1404 1404 1404 1404 1403 1403 1402 1402 1402 1401 1401 1400 1401 1400 1400 1399 1398 1397 1396 1395 1394 1392 1390 1388 1386 1384 1381 1378 1375 1371
1457 1456 1454 1453 1451 1450 1448 1447 1445 1444 1442 1441 1439 1438 1436 1434 1433 1431 1429 1428 1426 1424 1423 1422 1421 1419 1418 1417 1415 1414 1413 1412 1411 1410 1409 1408 1407 1406 1406 1405 1404 1403 1402 1402 1402 1402 1402 1402 1403 1402 1402 1402 1402 1402 1402 1402 1402 1402 1401 1401 1400 1400 1400 1400 1399 1399 1399 1399 1398 1398 1397 1397 1395 1394 1393 1392 1390 1388 1386 1384 1382 1380 1376 1373 1370
1455 1454 1452 1451 1449 1448 1446 1445 1443 1442 1440 1439 1437 1436 1434 1432 1431 1429 1428 1426 1424 1423 1422 1420 1419 1418 1417 1415 1414 1413 1412 1411 1410 1408 1408 1407 1406 1405 1404 1403 1402 1401 1401 1400 1400 1400 1400 1400 1400 1400 1400 1400 1400 1399 1400 1400 1399 1399 1399 1399 1398 1398 1398 1398 1398 1398 1398 1397 1397 1396 1396 1395 1394 1393 1392 1390 1388 1386 1385 1383 1380 1377 1374 1371 1368
1453 1451 1450 1449 1447 1446 1444 1443 1441 1440 1439 1437 1436 1434 1432 1431 1429 1428 1426 1425 1423 1422 1420 1419 1417 1416 1415 1414 1413 1412 1411 1410 1408 1407 1406 1405 1404 1403 1402 1401 1401 1400 1399 1398 1398 1397 1397 1397 1397 1397 1397 1397 1397 1397 1397 1397 1397 1397 1397 1397 1397 1397 1396 1396 1396 1396 1396 1396 1395 1395 1394 1393 1393 1391 1390 1388 1387 1384 1383 1381 1378 1375 1372 1368 1365
1450 1449 1447 1446 1445 1443 1442 1441 1439 1438 1437 1435 1434 1432 1431 1429 1428 1426 1425 1423 1422 1420 1419 1418 1417 1415 1414 1413 1412 1411 1410 1409 1407 1406 1405 1404 1403 1402 1401 1400 1399 1398 1397 1396 1396 1395 1395 1394 1394 1394 1394 1394 1395 1395 1395 1395 1395 1395 1395 1395 1395 1395 1395 1395 1395 1395 1394 1394 1394 1394 1393 1392 1391 1390 1388 1387 1385 1383 1381 1379 1375 1373 1370 1366 1363
1448 1447 1445 1444 1442 1441 1440 1438 1437 1436 1435 1433 1432 1430 1429 1427 1426 1425 1423 1422 1421 1419 1418 1417 1416 1414 1413 1412 1411 1410 1409 1408 1406 1405 1404 1403 1401 1400 1399 1398 1398 1397 1396 1395 1394 1393 1393 1393 1392 1392 1393 1392 1392 1393 1393 1393 1393 1394 1394 1394 1394 1394 1394 1394 1394 1393 1393 1393 1392 1392 1391 1390 1389 1388 1386 1385 1383 1381 1379 1376 1373 1371 1368 1364 1360
1446 1445 1443 1441 1440 1439 1438 1436 1435 1434 1433 1432 1430 1429 1427 1426 1425 1423 1422 1421 1420 1418 1417 1416 1415 1413 1412 1412 1410 1409 1408 1407 1405 1404 1403 1401 1400 1399 1398 1397 1396 1396 1395 1394 1393 1392 1392 1392 1392 1391 1391 1391 1391 1391 1391 1392 1392 1392 1392 1393 1393 1393 1393 1393 1392 1392 1392 1391 1391 1390 1389 1388 1388 1386 1384 1383 1381 1379 1376 1374 1371 1369 1366 1362 1359
1444 1443 1441 1440 1438 1437 1436 1435 1434 1432 1431 1430 1429 1427 1426 1425 1423 1422 1421 1420 1418 1417 1416 1415 1414 1413 1412 1410 1409 1408 1407 1405 1404 1403 1402 1400 1399 1398 1397 1396 1396 1395 1394 1393 1393 1392 1391 1391 1391 1390 1390 1390 1390 1390 1390 1391 1391 1391 1391 1392 1392 1392 1392 1392 1391 1391 1391 1390 1389 1389 1388 1387 1386 1385 1383 1381 1379 1377 1374 1372 1369 1366 1363 1360 1357
1442 1441 1439 1438 1437 1435 1434 1433 1432 1431 1430 1428 1427 1426 1425 1423 1422 1421 1419 1418 1417 1416 1415 1414 1413 1411 1410 1409 1408 1407 1406 1404 1403 1402 1401 1399 1398 1397 1396 1396 1395 1394 1393 1392 1392 1391 1391 1390 1390 1390 1390 1389 1389 1390 1390 1390 1390 1390 1390 1391 1391 1391 1391 1391 1390 1390 1390 1389 1388 1388 1387 1385 1384 1383 1381 1380 1377 1375 1373 1370 1367 1364 1361 1358 1354
1440 1439 1438 1436 1435 1434 1432 1431 1430 1429 1428 1427 1426 1424 1423 1422 1421 1419 1418 1417 1416 1415 1413 1412 1411 1410 1409 1408 1407 1406 1404 1403 1402 1401 1400 1399 1398 1397 1396 1395 1394 1393 1392 1392 1391 1390 1390 1389 1389 1389 1389 1389 1389 1389 1389 1389 1389 1390 1390 1390 1390 1390 1390 1390 1389 1389 1388 1388 1387 1386 1385 1384 1383 1381 1379 1378 1375 1372 1370 1368 1365 1361 1359 1355 1352